Location: Caltech
(34.1382°N, 118.1253°W)
Time: 00:28:13
(UTC-07:00)

Hamsat - Visible Passes

Search period start: 28 August 2015 00:00
Search period end: 07 September 2015 00:00
Orbit: 588 x 623 km, 97.6° (Epoch: 27 August)

Date Brightness Start Highest point End Pass type
(mag) Time Alt. Az. Time Alt. Az. Time Alt. Az.
29 Aug ? 05:00:57 10° ENE 05:03:14 15° E 05:05:42 10° SE visible
30 Aug ? 05:12:59 10° NE 05:16:07 21° E 05:19:20 10° SE visible
31 Aug ? 05:25:19 10° NE 05:28:58 30° E 05:32:39 10° SSE visible
01 Sep ? 05:37:49 10° NNE 05:41:47 43° E 05:45:45 10° S visible
02 Sep ? 05:50:26 10° NNE 05:54:34 65° E 05:58:41 10° S visible
05 Sep ? 04:54:55 10° ENE 04:56:39 13° E 04:58:36 10° ESE visible
06 Sep ? 05:06:43 10° NE 05:09:32 18° E 05:12:30 10° SE visible
